Weather History for Resolute, NU

Change the Weather History Date:

Monday, October 28, 2013

  Actual Average Record
Temperature  
Mean Temperature -15 °F -  
Max Temperature -13 °F 4 °F 26 °F (2006)
Min Temperature -17 °F -2 °F -18 °F (1999)
Degree Days  
Heating Degree Days 80    
Moisture  
Dew Point -23 °F    
Average Humidity 64    
Maximum Humidity 70    
Minimum Humidity 47    
Precipitation  
Precipitation 0.00 in - - ()
Sea Level Pressure  
Sea Level Pressure 29.97 in    
Wind  
Wind Speed 10 mph ()    
Max Wind Speed 18 mph    
Max Gust Speed -    
Visibility 11.3 miles    
Events Snow    
Averages and records for this station are not official NWS values.
T = Trace of Precipitation, MM = Missing Value Source: Averaged Metar Reports

Daily Weather History Graph

Daily Weather History Graph

Search for Another Location

Airport:

Trip Planner

Search our weather history database for the weather conditions in past years. The results will help you decide how hot, cold, wet, or windy it might be!

Date:

Astronomy

Oct. 28, 2013 Rise Set
Actual Time 10:39 AM CDT 3:25 PM CDT
Civil Twilight 8:52 AM CDT 5:12 PM CDT
Nautical Twilight 7:15 AM CDT 6:49 PM CDT
Astronomical Twilight 5:43 AM CDT 8:20 PM CDT
Moon No Moon Rise 4:41 PM CDT (10/28)
Length of Visible Light 8h 20m
Length of Day
4h 45m
Waning Crescent, 34% of the Moon is Illuminated
Oct 28
Waning Crescent
Nov 3
New
Nov 9
First Quarter
Nov 17
Full
Nov 25
Last Quarter

Hourly Weather History & Observations

Time (CDT) Temp. Windchill Dew Point Humidity Pressure Visibility Wind Dir Wind Speed Gust Speed Precip Events Conditions
12:00 AM -14.8 °F -39.1 °F -22.0 °F 70% 29.92 in 0.5 mi North 16.1 mph - N/A Snow Ice Crystals
12:20 AM - - - N/A% - 1.0 mi North 18.4 mph - N/A   Ice Crystals
1:00 AM -14 °F - -23 °F 48% 29.95 in 1 mi North 15.0 mph - - Snow Snow
1:00 AM -14.8 °F -38.3 °F -22.0 °F 70% 29.95 in 1.0 mi North 15.0 mph - N/A Snow Ice Crystals
1:37 AM - - - N/A% - 2.5 mi North 15.0 mph - N/A   Ice Crystals
2:00 AM -14.8 °F -38.3 °F -23.8 °F 64% 29.97 in 2.5 mi North 15.0 mph - N/A Snow Ice Crystals
2:48 AM - - - N/A% - 10.0 mi NNW 12.7 mph - N/A   Unknown
3:00 AM -14.8 °F -37.5 °F -23.8 °F 64% 29.97 in 10.0 mi NNW 13.8 mph - N/A Snow Low Drifting Snow
4:00 AM -14.8 °F -39.8 °F -23.8 °F 64% 29.97 in 8.0 mi NNW 17.3 mph - N/A Snow Low Drifting Snow
5:00 AM -16.6 °F -34.4 °F -25.6 °F 64% 29.98 in 15.0 mi NW 8.1 mph - N/A Snow Low Drifting Snow
6:00 AM -16.6 °F -34.4 °F -25.6 °F 64% 29.99 in 15.0 mi NW 8.1 mph - N/A   Clear
7:00 AM -17 °F - -26 °F 47% 29.99 in 15 mi WNW 4.6 mph - - Snow Snow
7:00 AM -16.6 °F -29.3 °F -25.6 °F 64% 29.99 in 15.0 mi WNW 4.6 mph - N/A   Clear
8:00 AM -16.6 °F -37.9 °F -25.6 °F 64% 29.99 in 12.0 mi NNW 11.5 mph - N/A   Partly Cloudy
9:00 AM -13.0 °F -30.0 °F -22.0 °F 64% 29.98 in 10.0 mi North 8.1 mph - N/A   Partly Cloudy
10:00 AM -16.6 °F -31.3 °F -25.6 °F 64% 29.99 in 15.0 mi WNW 5.8 mph - N/A   Partly Cloudy
11:00 AM -16.6 °F -31.3 °F -25.6 °F 64% 29.99 in 15.0 mi WNW 5.8 mph - N/A   Partly Cloudy
12:00 PM -14.8 °F -24.8 °F -23.8 °F 64% 29.98 in 15.0 mi NW 3.5 mph - N/A   Partly Cloudy
1:00 PM -14.8 °F -24.8 °F -23.8 °F 64% 29.99 in 15.0 mi NW 3.5 mph - N/A   Partly Cloudy
2:00 PM -14.8 °F -27.2 °F -23.8 °F 64% 29.98 in 15.0 mi WNW 4.6 mph - N/A   Partly Cloudy
3:00 PM -13.0 °F -30.0 °F -22.0 °F 64% 29.97 in 15.0 mi NW 8.1 mph - N/A   Partly Cloudy
4:00 PM -13.0 °F -30.0 °F -20.2 °F 70% 29.97 in 15.0 mi NNW 8.1 mph - N/A   Partly Cloudy
5:00 PM -13.0 °F -22.7 °F -20.2 °F 70% 29.98 in 15.0 mi WNW 3.5 mph - N/A   Partly Cloudy
6:00 PM -13.0 °F -27.0 °F -22.0 °F 64% 29.99 in 15.0 mi WNW 5.8 mph - N/A   Partly Cloudy
7:00 PM -14.8 °F -33.5 °F -23.8 °F 64% 29.98 in 15.0 mi WNW 9.2 mph - N/A   Partly Cloudy
8:00 PM -14.8 °F -30.8 °F -22.0 °F 70% 29.98 in 15.0 mi NW 6.9 mph - N/A   Clear
9:00 PM -16.6 °F -29.3 °F -25.6 °F 64% 29.96 in 15.0 mi WNW 4.6 mph - N/A   Clear
10:00 PM -14.8 °F -30.8 °F -22.0 °F 70% 29.96 in 15.0 mi North 6.9 mph - N/A   Clear
11:00 PM -13.0 °F -31.3 °F -20.2 °F 70% 29.96 in 15.0 mi North 9.2 mph - N/A   Clear